TimeEST,TemperatureF,Dew PointF,Humidity,Sea Level PressureIn,VisibilityMPH,Wind Direction,Wind SpeedMPH,Gust SpeedMPH,PrecipitationIn,Events,Conditions,WindDirDegrees,DateUTC
12:56 AM,53.1,33.1,47,30.26,10.0,Calm,Calm,-,N/A,,Clear,0,2012-11-11 05:56:00
1:56 AM,52.0,33.1,49,30.27,10.0,Calm,Calm,-,N/A,,Clear,0,2012-11-11 06:56:00
2:56 AM,50.0,33.1,52,30.27,10.0,SE,3.5,-,N/A,,Scattered Clouds,140,2012-11-11 07:56:00
3:56 AM,46.9,32.0,56,30.29,10.0,SE,4.6,-,N/A,,Clear,130,2012-11-11 08:56:00
4:56 AM,48.0,32.0,54,30.31,10.0,SE,4.6,-,N/A,,Clear,130,2012-11-11 09:56:00
5:56 AM,44.1,32.0,63,30.33,10.0,ESE,3.5,-,N/A,,Clear,120,2012-11-11 10:56:00
6:56 AM,46.0,32.0,58,30.35,10.0,ESE,4.6,-,N/A,,Clear,120,2012-11-11 11:56:00
7:56 AM,46.9,34.0,61,30.37,10.0,East,4.6,-,N/A,,Clear,100,2012-11-11 12:56:00
8:56 AM,54.0,34.0,47,30.37,10.0,SSE,3.5,-,N/A,,Clear,150,2012-11-11 13:56:00
9:56 AM,62.1,35.1,37,30.36,10.0,SSW,12.7,17.3,N/A,,Clear,210,2012-11-11 14:56:00
10:56 AM,64.0,34.0,33,30.35,10.0,SW,9.2,-,N/A,,Clear,230,2012-11-11 15:56:00
11:56 AM,66.9,33.1,28,30.32,10.0,SSW,10.4,-,N/A,,Clear,210,2012-11-11 16:56:00
12:56 PM,66.0,33.1,29,30.30,10.0,SW,8.1,-,N/A,,Clear,230,2012-11-11 17:56:00
1:56 PM,66.9,32.0,27,30.27,10.0,SSW,8.1,-,N/A,,Clear,210,2012-11-11 18:56:00
2:56 PM,66.9,33.1,28,30.27,10.0,South,5.8,-,N/A,,Clear,180,2012-11-11 19:56:00
3:56 PM,66.0,32.0,28,30.27,10.0,SSE,4.6,-,N/A,,Clear,160,2012-11-11 20:56:00
4:56 PM,64.9,30.9,28,30.28,10.0,SSE,3.5,-,N/A,,Clear,160,2012-11-11 21:56:00
5:56 PM,59.0,35.1,41,30.29,10.0,SE,10.4,-,N/A,,Clear,130,2012-11-11 22:56:00
6:56 PM,57.0,35.1,44,30.30,10.0,SE,10.4,-,N/A,,Clear,130,2012-11-11 23:56:00
7:56 PM,55.9,34.0,44,30.29,10.0,SE,10.4,-,N/A,,Clear,130,2012-11-12 00:56:00
8:56 PM,55.9,34.0,44,30.28,10.0,SE,10.4,-,N/A,,Clear,140,2012-11-12 01:56:00
9:56 PM,55.9,35.1,45,30.26,10.0,SE,10.4,-,N/A,,Clear,130,2012-11-12 02:56:00
10:56 PM,55.9,35.1,45,30.25,10.0,SE,9.2,-,N/A,,Clear,140,2012-11-12 03:56:00
11:56 PM,55.9,35.1,45,30.24,10.0,SSE,9.2,17.3,N/A,,Clear,150,2012-11-12 04:56:00